Year,Month,Day,Hour,Minute,Value (Times are PST for windspeed in km/hr)
2008,10,06,00,00,2.10
2008,10,06,00,01,2.10
2008,10,06,00,02,1.80
2008,10,06,00,03,2.90
2008,10,06,00,04,3.90
2008,10,06,00,05,3.70
2008,10,06,00,06,3.20
2008,10,06,00,07,3.50
2008,10,06,00,08,3.70
2008,10,06,00,09,3.50
2008,10,06,00,10,2.70
2008,10,06,00,11,3.50
2008,10,06,00,12,3.70
2008,10,06,00,13,3.40
2008,10,06,00,14,2.80
2008,10,06,00,15,3.30
2008,10,06,00,16,2.50
2008,10,06,00,17,3.40
2008,10,06,00,18,3.40
2008,10,06,00,19,3.90
2008,10,06,00,20,2.10
2008,10,06,00,21,3.90
2008,10,06,00,22,2.80
2008,10,06,00,23,4.00
2008,10,06,00,24,1.90
2008,10,06,00,25,0.00
2008,10,06,00,26,2.20
2008,10,06,00,27,1.30
2008,10,06,00,28,3.60
2008,10,06,00,29,4.60
2008,10,06,00,30,3.90
2008,10,06,00,31,3.80
2008,10,06,00,32,4.40
2008,10,06,00,33,2.50
2008,10,06,00,34,1.70
2008,10,06,00,35,2.60
2008,10,06,00,36,3.50
2008,10,06,00,37,3.20
2008,10,06,00,38,4.60
2008,10,06,00,39,3.00
2008,10,06,00,40,3.40
2008,10,06,00,41,1.00
2008,10,06,00,42,1.60
2008,10,06,00,43,1.70
2008,10,06,00,44,3.30
2008,10,06,00,45,3.80
2008,10,06,00,46,5.30
2008,10,06,00,47,5.00
2008,10,06,00,48,4.20
2008,10,06,00,49,3.30
2008,10,06,00,50,3.00
2008,10,06,00,51,3.40
2008,10,06,00,52,2.80
2008,10,06,00,53,3.30
2008,10,06,00,54,3.80
2008,10,06,00,55,3.20
2008,10,06,00,56,3.40
2008,10,06,00,57,4.50
2008,10,06,00,58,4.90
2008,10,06,00,59,5.20
2008,10,06,01,00,5.80
2008,10,06,01,01,4.50
2008,10,06,01,02,4.00
2008,10,06,01,03,5.50
2008,10,06,01,04,5.50
2008,10,06,01,05,5.00
2008,10,06,01,06,4.90
2008,10,06,01,07,5.20
2008,10,06,01,08,4.70
2008,10,06,01,09,4.50
2008,10,06,01,10,5.40
2008,10,06,01,11,5.60
2008,10,06,01,12,4.90
2008,10,06,01,13,4.60
2008,10,06,01,14,4.70
2008,10,06,01,15,4.30
2008,10,06,01,16,3.60
2008,10,06,01,17,4.30
2008,10,06,01,18,4.60
2008,10,06,01,19,4.80
2008,10,06,01,20,5.40
2008,10,06,01,21,5.20
2008,10,06,01,22,5.50
2008,10,06,01,23,4.90
2008,10,06,01,24,3.70
2008,10,06,01,25,3.20
2008,10,06,01,26,3.20
2008,10,06,01,27,4.00
2008,10,06,01,28,3.40
2008,10,06,01,29,3.40
2008,10,06,01,30,3.60
2008,10,06,01,31,3.30
2008,10,06,01,32,3.00
2008,10,06,01,33,2.80
2008,10,06,01,34,1.40
2008,10,06,01,35,3.40
2008,10,06,01,36,3.10
2008,10,06,01,37,4.40
2008,10,06,01,38,4.20
2008,10,06,01,39,4.40
2008,10,06,01,40,3.40
2008,10,06,01,41,3.50
2008,10,06,01,42,3.40
2008,10,06,01,43,3.90
2008,10,06,01,44,6.00
2008,10,06,01,45,4.70
2008,10,06,01,46,5.90
2008,10,06,01,47,5.60
2008,10,06,01,48,6.00
2008,10,06,01,49,5.70
2008,10,06,01,50,6.80
2008,10,06,01,51,5.90
2008,10,06,01,52,5.50
2008,10,06,01,53,5.00
2008,10,06,01,54,5.90
2008,10,06,01,55,4.20
2008,10,06,01,56,4.70
2008,10,06,01,57,3.50
2008,10,06,01,58,4.40
2008,10,06,01,59,5.40
2008,10,06,02,00,3.90
2008,10,06,02,01,6.00
2008,10,06,02,02,5.80
2008,10,06,02,03,4.90
2008,10,06,02,04,5.30
2008,10,06,02,05,5.10
2008,10,06,02,06,3.90
2008,10,06,02,07,5.00
2008,10,06,02,08,5.50
2008,10,06,02,09,4.90
2008,10,06,02,10,4.50
2008,10,06,02,11,5.80
2008,10,06,02,12,6.40
2008,10,06,02,13,6.40
2008,10,06,02,14,6.70
2008,10,06,02,15,5.80
2008,10,06,02,16,4.90
2008,10,06,02,17,6.40
2008,10,06,02,18,5.50
2008,10,06,02,19,5.00
2008,10,06,02,20,5.30
2008,10,06,02,21,6.00
2008,10,06,02,22,5.80
2008,10,06,02,23,4.80
2008,10,06,02,24,5.50
2008,10,06,02,25,6.10
2008,10,06,02,26,6.00
2008,10,06,02,27,4.10
2008,10,06,02,28,4.30
2008,10,06,02,29,5.20
2008,10,06,02,30,6.10
2008,10,06,02,31,5.90
2008,10,06,02,32,6.60
2008,10,06,02,33,5.40
2008,10,06,02,34,5.70
2008,10,06,02,35,5.30
2008,10,06,02,36,5.60
2008,10,06,02,37,5.90
2008,10,06,02,38,5.80
2008,10,06,02,39,4.40
2008,10,06,02,40,3.10
2008,10,06,02,41,2.20
2008,10,06,02,42,3.80
2008,10,06,02,43,1.80
2008,10,06,02,44,3.90
2008,10,06,02,45,2.90
2008,10,06,02,46,4.10
2008,10,06,02,47,2.90
2008,10,06,02,48,1.40
2008,10,06,02,49,1.90
2008,10,06,02,50,3.00
2008,10,06,02,51,2.10
2008,10,06,02,52,4.80
2008,10,06,02,53,3.40
2008,10,06,02,54,2.40
2008,10,06,02,55,5.60
2008,10,06,02,56,3.50
2008,10,06,02,57,0.90
2008,10,06,02,58,3.30
2008,10,06,02,59,4.50
2008,10,06,03,00,3.70
2008,10,06,03,01,6.00
2008,10,06,03,02,4.30
2008,10,06,03,03,4.30
2008,10,06,03,04,7.00
2008,10,06,03,05,6.50
2008,10,06,03,06,7.30
2008,10,06,03,07,7.60
2008,10,06,03,08,5.80
2008,10,06,03,09,5.30
2008,10,06,03,10,4.70
2008,10,06,03,11,4.70
2008,10,06,03,12,4.60
2008,10,06,03,13,3.80
2008,10,06,03,14,4.40
2008,10,06,03,15,5.50
2008,10,06,03,16,6.50
2008,10,06,03,17,6.00
2008,10,06,03,18,4.80
2008,10,06,03,19,5.60
2008,10,06,03,20,5.30
2008,10,06,03,21,6.40
2008,10,06,03,22,6.20
2008,10,06,03,23,5.80
2008,10,06,03,24,4.70
2008,10,06,03,25,4.40
2008,10,06,03,26,5.00
2008,10,06,03,27,3.00
2008,10,06,03,28,2.80
2008,10,06,03,29,2.10
2008,10,06,03,30,4.00
2008,10,06,03,31,4.00
2008,10,06,03,32,4.90
2008,10,06,03,33,5.70
2008,10,06,03,34,4.10
2008,10,06,03,35,5.40
2008,10,06,03,36,4.90
2008,10,06,03,37,3.20
2008,10,06,03,38,3.90
2008,10,06,03,39,4.50
2008,10,06,03,40,3.80
2008,10,06,03,41,2.80
2008,10,06,03,42,1.00
2008,10,06,03,43,1.20
2008,10,06,03,44,1.30
2008,10,06,03,45,0.20
2008,10,06,03,46,1.40
2008,10,06,03,47,3.90
2008,10,06,03,48,3.90
2008,10,06,03,49,0.20
2008,10,06,03,50,0.40
2008,10,06,03,51,1.20
2008,10,06,03,52,2.60
2008,10,06,03,53,3.80
2008,10,06,03,54,3.90
2008,10,06,03,55,1.40
2008,10,06,03,56,2.90
2008,10,06,03,57,4.30
2008,10,06,03,58,3.50
2008,10,06,03,59,5.00
2008,10,06,04,00,5.40
2008,10,06,04,01,4.60
2008,10,06,04,02,5.10
2008,10,06,04,03,2.30
2008,10,06,04,04,3.10
2008,10,06,04,05,0.00
2008,10,06,04,06,1.40
2008,10,06,04,07,2.90
2008,10,06,04,08,0.60
2008,10,06,04,09,0.60
2008,10,06,04,10,2.40
2008,10,06,04,11,2.60
2008,10,06,04,12,1.20
2008,10,06,04,13,0.20
2008,10,06,04,14,0.20
2008,10,06,04,15,3.30
2008,10,06,04,16,3.50
2008,10,06,04,17,1.90
2008,10,06,04,18,0.10
2008,10,06,04,19,1.80
2008,10,06,04,20,0.30
2008,10,06,04,21,0.30
2008,10,06,04,22,0.10
2008,10,06,04,23,1.00
2008,10,06,04,24,1.60
2008,10,06,04,25,0.10
2008,10,06,04,26,2.50
2008,10,06,04,27,2.90
2008,10,06,04,28,3.40
2008,10,06,04,29,3.80
2008,10,06,04,30,3.30
2008,10,06,04,31,3.40
2008,10,06,04,32,0.30
2008,10,06,04,33,0.70
2008,10,06,04,34,1.70
2008,10,06,04,35,2.10
2008,10,06,04,36,2.60
2008,10,06,04,37,3.70
2008,10,06,04,38,3.10
2008,10,06,04,39,3.10
2008,10,06,04,40,1.80
2008,10,06,04,41,0.30
2008,10,06,04,42,0.00
2008,10,06,04,43,0.30
2008,10,06,04,44,0.10
2008,10,06,04,45,1.20
2008,10,06,04,46,0.50
2008,10,06,04,47,1.80
2008,10,06,04,48,1.00
2008,10,06,04,49,0.30
2008,10,06,04,50,0.80
2008,10,06,04,51,2.20
2008,10,06,04,52,0.50
2008,10,06,04,53,1.00
2008,10,06,04,54,0.30
2008,10,06,04,55,2.60
2008,10,06,04,56,2.50
2008,10,06,04,57,1.80
2008,10,06,04,58,4.40
2008,10,06,04,59,1.90
2008,10,06,05,00,1.50
2008,10,06,05,01,0.40
2008,10,06,05,02,0.80
2008,10,06,05,03,0.30
2008,10,06,05,04,2.30
2008,10,06,05,05,1.10
2008,10,06,05,06,0.50
2008,10,06,05,07,0.60
2008,10,06,05,08,2.40
2008,10,06,05,09,0.30
2008,10,06,05,10,1.90
2008,10,06,05,11,3.00
2008,10,06,05,12,3.60
2008,10,06,05,13,2.40
2008,10,06,05,14,1.90
2008,10,06,05,15,4.20
2008,10,06,05,16,2.70
2008,10,06,05,17,0.30
2008,10,06,05,18,0.80
2008,10,06,05,19,3.00
2008,10,06,05,20,2.30
2008,10,06,05,21,3.50
2008,10,06,05,22,1.40
2008,10,06,05,23,3.50
2008,10,06,05,24,2.10
2008,10,06,05,25,2.30
2008,10,06,05,26,3.80
2008,10,06,05,27,3.40
2008,10,06,05,28,4.90
2008,10,06,05,29,6.20
2008,10,06,05,30,6.10
2008,10,06,05,31,5.10
2008,10,06,05,32,5.80
2008,10,06,05,33,5.00
2008,10,06,05,34,4.60
2008,10,06,05,35,4.30
2008,10,06,05,36,5.30
2008,10,06,05,37,5.20
2008,10,06,05,38,4.70
2008,10,06,05,39,5.00
2008,10,06,05,40,6.10
2008,10,06,05,41,5.70
2008,10,06,05,42,4.70
2008,10,06,05,43,4.60
2008,10,06,05,44,6.30
2008,10,06,05,45,4.50
2008,10,06,05,46,4.90
2008,10,06,05,47,4.60
2008,10,06,05,48,4.80
2008,10,06,05,49,4.70
2008,10,06,05,50,3.90
2008,10,06,05,51,2.40
2008,10,06,05,52,3.90
2008,10,06,05,53,5.80
2008,10,06,05,54,4.90
2008,10,06,05,55,3.80
2008,10,06,05,56,3.40
2008,10,06,05,57,4.90
2008,10,06,05,58,4.10
2008,10,06,05,59,3.80
2008,10,06,06,00,5.30
2008,10,06,06,01,5.10
2008,10,06,06,02,5.10
2008,10,06,06,03,6.00
2008,10,06,06,04,5.30
2008,10,06,06,05,3.50
2008,10,06,06,06,4.30
2008,10,06,06,07,3.80
2008,10,06,06,08,3.60
2008,10,06,06,09,5.10
2008,10,06,06,10,5.80
2008,10,06,06,11,5.10
2008,10,06,06,12,6.40
2008,10,06,06,13,6.40
2008,10,06,06,14,7.40
2008,10,06,06,15,8.20
2008,10,06,06,16,5.90
2008,10,06,06,17,6.50
2008,10,06,06,18,6.50
2008,10,06,06,19,5.70
2008,10,06,06,20,8.90
2008,10,06,06,21,6.00
2008,10,06,06,22,5.40
2008,10,06,06,23,7.00
2008,10,06,06,24,7.30
2008,10,06,06,25,6.40
2008,10,06,06,26,5.20
2008,10,06,06,27,4.60
2008,10,06,06,28,6.60
2008,10,06,06,29,5.70
2008,10,06,06,30,7.40
2008,10,06,06,31,3.80
2008,10,06,06,32,4.30
2008,10,06,06,33,5.30
2008,10,06,06,34,6.40
2008,10,06,06,35,7.10
2008,10,06,06,36,5.50
2008,10,06,06,37,4.90
2008,10,06,06,38,5.40
2008,10,06,06,39,6.70
2008,10,06,06,40,6.90
2008,10,06,06,41,4.90
2008,10,06,06,42,4.50
2008,10,06,06,43,5.30
2008,10,06,06,44,6.80
2008,10,06,06,45,8.10
2008,10,06,06,46,6.80
2008,10,06,06,47,7.10
2008,10,06,06,48,9.90
2008,10,06,06,49,8.40
2008,10,06,06,50,8.60
2008,10,06,06,51,9.20
2008,10,06,06,52,6.40
2008,10,06,06,53,6.70
2008,10,06,06,54,5.50
2008,10,06,06,55,6.80
2008,10,06,06,56,9.70
2008,10,06,06,57,7.60
2008,10,06,06,58,7.50
2008,10,06,06,59,6.60
2008,10,06,07,00,7.40
2008,10,06,07,01,8.10
2008,10,06,07,02,8.30
2008,10,06,07,03,6.70
2008,10,06,07,04,12.40
2008,10,06,07,05,6.00
2008,10,06,07,06,7.40
2008,10,06,07,07,7.20
2008,10,06,07,08,9.40
2008,10,06,07,09,11.00
2008,10,06,07,10,8.80
2008,10,06,07,11,9.70
2008,10,06,07,12,7.70
2008,10,06,07,13,6.70
2008,10,06,07,14,7.10
2008,10,06,07,15,7.80
2008,10,06,07,16,8.90
2008,10,06,07,17,8.40
2008,10,06,07,18,10.20
2008,10,06,07,19,8.00
2008,10,06,07,20,12.00
2008,10,06,07,21,9.00
2008,10,06,07,22,5.60
2008,10,06,07,23,9.80
2008,10,06,07,24,11.70
2008,10,06,07,25,12.20
2008,10,06,07,26,8.90
2008,10,06,07,27,9.60
2008,10,06,07,28,8.20
2008,10,06,07,29,8.20
2008,10,06,07,30,9.00
2008,10,06,07,31,8.10
2008,10,06,07,32,8.50
2008,10,06,07,33,5.90
2008,10,06,07,34,10.60
2008,10,06,07,35,9.60
2008,10,06,07,36,7.10
2008,10,06,07,37,9.70
2008,10,06,07,38,8.80
2008,10,06,07,39,8.10
2008,10,06,07,40,7.10
2008,10,06,07,41,7.10
2008,10,06,07,42,8.60
2008,10,06,07,43,8.10
2008,10,06,07,44,6.20
2008,10,06,07,45,6.50
2008,10,06,07,46,7.90
2008,10,06,07,47,8.90
2008,10,06,07,48,7.40
2008,10,06,07,49,6.50
2008,10,06,07,50,8.60
2008,10,06,07,51,6.80
2008,10,06,07,52,5.90
2008,10,06,07,53,7.40
2008,10,06,07,54,5.50
2008,10,06,07,55,5.50
2008,10,06,07,56,5.30
2008,10,06,07,57,6.10
2008,10,06,07,58,9.20
2008,10,06,07,59,11.60
2008,10,06,08,00,8.50
2008,10,06,08,01,8.10
2008,10,06,08,02,8.60
2008,10,06,08,03,7.50
2008,10,06,08,04,10.80
2008,10,06,08,05,9.70
2008,10,06,08,06,8.40
2008,10,06,08,07,14.20
2008,10,06,08,08,11.80
2008,10,06,08,09,8.20
2008,10,06,08,10,10.80
2008,10,06,08,11,7.60
2008,10,06,08,12,9.70
2008,10,06,08,13,9.80
2008,10,06,08,14,10.50
2008,10,06,08,15,7.90
2008,10,06,08,16,7.80
2008,10,06,08,17,5.60
2008,10,06,08,18,5.50
2008,10,06,08,19,10.50
2008,10,06,08,20,7.70
2008,10,06,08,21,9.60
2008,10,06,08,22,8.50
2008,10,06,08,23,9.70
2008,10,06,08,24,9.80
2008,10,06,08,25,8.80
2008,10,06,08,26,8.80
2008,10,06,08,27,6.80
2008,10,06,08,28,7.90
2008,10,06,08,29,7.30
2008,10,06,08,30,7.30
2008,10,06,08,31,10.70
2008,10,06,08,32,7.10
2008,10,06,08,33,7.00
2008,10,06,08,34,7.80
2008,10,06,08,35,8.00
2008,10,06,08,36,7.80
2008,10,06,08,37,7.90
2008,10,06,08,38,7.80
2008,10,06,08,39,6.90
2008,10,06,08,40,6.90
2008,10,06,08,41,10.20
2008,10,06,08,42,6.70
2008,10,06,08,43,11.30
2008,10,06,08,44,10.50
2008,10,06,08,45,8.10
2008,10,06,08,46,10.80
2008,10,06,08,47,9.40
2008,10,06,08,48,7.00
2008,10,06,08,49,11.00
2008,10,06,08,50,6.70
2008,10,06,08,51,6.70
2008,10,06,08,52,7.00
2008,10,06,08,53,6.10
2008,10,06,08,54,7.10
2008,10,06,08,55,7.30
2008,10,06,08,56,4.20
2008,10,06,08,57,3.10
2008,10,06,08,58,1.50
2008,10,06,08,59,1.20
2008,10,06,09,00,6.00
2008,10,06,09,01,7.10
2008,10,06,09,02,3.90
2008,10,06,09,03,5.90
2008,10,06,09,04,10.20
2008,10,06,09,05,9.10
2008,10,06,09,06,6.80
2008,10,06,09,07,5.50
2008,10,06,09,08,5.40
2008,10,06,09,09,2.90
2008,10,06,09,10,5.00
2008,10,06,09,11,4.70
2008,10,06,09,12,4.80
2008,10,06,09,13,5.20
2008,10,06,09,14,5.40
2008,10,06,09,15,5.20
2008,10,06,09,16,5.50
2008,10,06,09,17,5.10
2008,10,06,09,18,6.90
2008,10,06,09,19,7.70
2008,10,06,09,20,8.00
2008,10,06,09,21,9.70
2008,10,06,09,22,7.00
2008,10,06,09,23,9.90
2008,10,06,09,24,6.10
2008,10,06,09,25,8.20
2008,10,06,09,26,5.90
2008,10,06,09,27,8.20
2008,10,06,09,28,7.80
2008,10,06,09,29,6.40
2008,10,06,09,30,8.10
2008,10,06,09,31,9.20
2008,10,06,09,32,9.60
2008,10,06,09,33,8.60
2008,10,06,09,34,7.60
2008,10,06,09,35,7.50
2008,10,06,09,36,7.50
2008,10,06,09,37,8.10
2008,10,06,09,38,7.10
2008,10,06,09,39,7.30
2008,10,06,09,40,9.00
2008,10,06,09,41,7.80
2008,10,06,09,42,7.90
2008,10,06,09,43,9.00
2008,10,06,09,44,7.90
2008,10,06,09,45,6.50
2008,10,06,09,46,6.10
2008,10,06,09,47,6.40
2008,10,06,09,48,9.20
2008,10,06,09,49,11.00
2008,10,06,09,50,9.80
2008,10,06,09,51,8.10
2008,10,06,09,52,9.70
2008,10,06,09,53,7.60
2008,10,06,09,54,7.90
2008,10,06,09,55,6.80
2008,10,06,09,56,7.00
2008,10,06,09,57,6.10
2008,10,06,09,58,4.60
2008,10,06,09,59,4.60
2008,10,06,10,00,6.30
2008,10,06,10,01,8.10
2008,10,06,10,02,8.70
2008,10,06,10,03,6.80
2008,10,06,10,04,8.50
2008,10,06,10,05,7.20
2008,10,06,10,06,7.40
2008,10,06,10,07,6.40
2008,10,06,10,08,6.40
2008,10,06,10,09,6.60
2008,10,06,10,10,7.60
2008,10,06,10,11,6.80
2008,10,06,10,12,5.30
2008,10,06,10,13,4.10
2008,10,06,10,14,4.00
2008,10,06,10,15,7.70
2008,10,06,10,16,8.30
2008,10,06,10,17,6.40
2008,10,06,10,18,5.30
2008,10,06,10,19,4.30
2008,10,06,10,20,6.00
2008,10,06,10,21,7.90
2008,10,06,10,22,6.20
2008,10,06,10,23,6.50
2008,10,06,10,24,7.90
2008,10,06,10,25,5.30
2008,10,06,10,26,4.10
2008,10,06,10,27,4.30
2008,10,06,10,28,4.50
2008,10,06,10,29,5.90
2008,10,06,10,30,6.30
2008,10,06,10,31,7.70
2008,10,06,10,32,5.80
2008,10,06,10,33,6.80
2008,10,06,10,34,7.30
2008,10,06,10,35,6.60
2008,10,06,10,36,6.50
2008,10,06,10,37,7.00
2008,10,06,10,38,5.10
2008,10,06,10,39,4.90
2008,10,06,10,40,3.60
2008,10,06,10,41,1.70
2008,10,06,10,42,3.80
2008,10,06,10,43,5.00
2008,10,06,10,44,3.90
2008,10,06,10,45,4.50
2008,10,06,10,46,4.20
2008,10,06,10,47,4.10
2008,10,06,10,48,6.30
2008,10,06,10,49,7.70
2008,10,06,10,50,10.80
2008,10,06,10,51,7.50
2008,10,06,10,52,8.20
2008,10,06,10,53,8.50
2008,10,06,10,54,7.30
2008,10,06,10,55,6.40
2008,10,06,10,56,8.80
2008,10,06,10,57,7.60
2008,10,06,10,58,6.70
2008,10,06,10,59,5.10
2008,10,06,11,00,5.10
2008,10,06,11,01,7.60
2008,10,06,11,02,6.90
2008,10,06,11,03,5.40
2008,10,06,11,04,4.80
2008,10,06,11,05,6.60
2008,10,06,11,06,7.00
2008,10,06,11,07,5.30
2008,10,06,11,08,7.40
2008,10,06,11,09,7.40
2008,10,06,11,10,8.60
2008,10,06,11,11,5.20
2008,10,06,11,12,4.00
2008,10,06,11,13,5.10
2008,10,06,11,14,6.30
2008,10,06,11,15,8.90
2008,10,06,11,16,7.70
2008,10,06,11,17,6.40
2008,10,06,11,18,7.00
2008,10,06,11,19,5.20
2008,10,06,11,20,7.90
2008,10,06,11,21,7.40
2008,10,06,11,22,6.10
2008,10,06,11,23,7.70
2008,10,06,11,24,6.10
2008,10,06,11,25,6.60
2008,10,06,11,26,6.80
2008,10,06,11,27,6.60
2008,10,06,11,28,6.10
2008,10,06,11,29,5.80
2008,10,06,11,30,4.70
2008,10,06,11,31,5.60
2008,10,06,11,32,4.10
2008,10,06,11,33,6.80
2008,10,06,11,34,9.00
2008,10,06,11,35,7.90
2008,10,06,11,36,6.10
2008,10,06,11,37,5.60
2008,10,06,11,38,4.90
2008,10,06,11,39,8.50
2008,10,06,11,40,9.20
2008,10,06,11,41,9.80
2008,10,06,11,42,8.00
2008,10,06,11,43,7.10
2008,10,06,11,44,8.50
2008,10,06,11,45,9.80
2008,10,06,11,46,4.30
2008,10,06,11,47,7.00
2008,10,06,11,48,7.20
2008,10,06,11,49,4.70
2008,10,06,11,50,5.40
2008,10,06,11,51,2.80
2008,10,06,11,52,3.10
2008,10,06,11,53,2.00
2008,10,06,11,54,5.70
2008,10,06,11,55,6.80
2008,10,06,11,56,5.90
2008,10,06,11,57,4.70
2008,10,06,11,58,7.70
2008,10,06,11,59,5.70
2008,10,06,12,00,4.00
2008,10,06,12,01,5.10
2008,10,06,12,02,3.50
2008,10,06,12,03,3.90
2008,10,06,12,04,2.10
2008,10,06,12,05,1.90
2008,10,06,12,06,3.00
2008,10,06,12,07,8.30
2008,10,06,12,08,8.40
2008,10,06,12,09,9.10
2008,10,06,12,10,7.80
2008,10,06,12,11,6.70
2008,10,06,12,12,8.40
2008,10,06,12,13,7.10
2008,10,06,12,14,4.60
2008,10,06,12,15,4.90
2008,10,06,12,16,2.70
2008,10,06,12,17,1.70
2008,10,06,12,18,0.80
2008,10,06,12,19,3.00
2008,10,06,12,20,3.50
2008,10,06,12,21,2.80
2008,10,06,12,22,0.20
2008,10,06,12,23,2.10
2008,10,06,12,24,1.10
2008,10,06,12,25,0.20
2008,10,06,12,26,0.10
2008,10,06,12,27,0.00
2008,10,06,12,28,0.00
2008,10,06,12,29,0.20
2008,10,06,12,30,3.50
2008,10,06,12,31,1.80
2008,10,06,12,32,2.90
2008,10,06,12,33,2.60
2008,10,06,12,34,0.00
2008,10,06,12,35,0.20
2008,10,06,12,36,0.20
2008,10,06,12,37,3.30
2008,10,06,12,38,1.30
2008,10,06,12,39,0.30
2008,10,06,12,40,0.20
2008,10,06,12,41,2.40
2008,10,06,12,42,1.10
2008,10,06,12,43,2.20
2008,10,06,12,44,0.50
2008,10,06,12,45,0.40
2008,10,06,12,46,5.10
2008,10,06,12,47,2.30
2008,10,06,12,48,1.20
2008,10,06,12,49,0.80
2008,10,06,12,50,3.20
2008,10,06,12,51,5.20
2008,10,06,12,52,5.20
2008,10,06,12,53,4.60
2008,10,06,12,54,5.10
2008,10,06,12,55,3.60
2008,10,06,12,56,4.40
2008,10,06,12,57,3.80
2008,10,06,12,58,0.70
2008,10,06,12,59,4.50
2008,10,06,13,00,5.90
2008,10,06,13,01,5.60
2008,10,06,13,02,5.90
2008,10,06,13,03,8.30
2008,10,06,13,04,9.10
2008,10,06,13,05,9.50
2008,10,06,13,06,13.00
2008,10,06,13,07,11.60
2008,10,06,13,08,12.00
2008,10,06,13,09,13.20
2008,10,06,13,10,15.40
2008,10,06,13,11,7.40
2008,10,06,13,12,11.60
2008,10,06,13,13,11.10
2008,10,06,13,14,14.40
2008,10,06,13,15,11.20
2008,10,06,13,16,16.80
2008,10,06,13,17,16.10
2008,10,06,13,18,13.60
2008,10,06,13,19,11.40
2008,10,06,13,20,4.90
2008,10,06,13,21,5.30
2008,10,06,13,22,5.40
2008,10,06,13,23,5.70
2008,10,06,13,24,1.80
2008,10,06,13,25,3.10
2008,10,06,13,26,1.90
2008,10,06,13,27,1.50
2008,10,06,13,28,3.00
2008,10,06,13,29,2.80
2008,10,06,13,30,0.30
2008,10,06,13,31,2.40
2008,10,06,13,32,4.80
2008,10,06,13,33,5.00
2008,10,06,13,34,3.10
2008,10,06,13,35,3.20
2008,10,06,13,36,4.80
2008,10,06,13,37,4.20
2008,10,06,13,38,2.30
2008,10,06,13,39,4.20
2008,10,06,13,40,3.10
2008,10,06,13,41,2.00
2008,10,06,13,42,4.40
2008,10,06,13,43,4.80
2008,10,06,13,44,4.80
2008,10,06,13,45,4.80
2008,10,06,13,46,8.60
2008,10,06,13,47,8.80
2008,10,06,13,48,6.00
2008,10,06,13,49,4.70
2008,10,06,13,50,4.50
2008,10,06,13,51,11.20
2008,10,06,13,52,10.60
2008,10,06,13,53,7.80
2008,10,06,13,54,5.80
2008,10,06,13,55,2.50
2008,10,06,13,56,0.30
2008,10,06,13,57,2.20
2008,10,06,13,58,0.20
2008,10,06,13,59,0.50
2008,10,06,14,00,1.60
2008,10,06,14,01,6.70
2008,10,06,14,02,7.50
2008,10,06,14,03,3.70
2008,10,06,14,04,3.30
2008,10,06,14,05,2.40
2008,10,06,14,06,0.90
2008,10,06,14,07,4.10
2008,10,06,14,08,6.40
2008,10,06,14,09,3.90
2008,10,06,14,10,5.10
2008,10,06,14,11,6.40
2008,10,06,14,12,6.70
2008,10,06,14,13,5.90
2008,10,06,14,14,11.00
2008,10,06,14,15,11.70
2008,10,06,14,16,10.60
2008,10,06,14,17,5.20
2008,10,06,14,18,0.60
2008,10,06,14,19,0.70
2008,10,06,14,20,1.20
2008,10,06,14,21,7.80
2008,10,06,14,22,9.50
2008,10,06,14,23,13.00
2008,10,06,14,24,3.20
2008,10,06,14,25,6.90
2008,10,06,14,26,5.60
2008,10,06,14,27,5.40
2008,10,06,14,28,4.70
2008,10,06,14,29,11.80
2008,10,06,14,30,15.40
2008,10,06,14,31,12.70
2008,10,06,14,32,6.80
2008,10,06,14,33,7.00
2008,10,06,14,34,5.40
2008,10,06,14,35,3.30
2008,10,06,14,36,4.10
2008,10,06,14,37,3.50
2008,10,06,14,38,0.10
2008,10,06,14,39,0.20
2008,10,06,14,40,0.70
2008,10,06,14,41,1.90
2008,10,06,14,42,4.30
2008,10,06,14,43,4.30
2008,10,06,14,44,8.90
2008,10,06,14,45,12.20
2008,10,06,14,46,12.70
2008,10,06,14,47,10.80
2008,10,06,14,48,10.40
2008,10,06,14,49,8.50
2008,10,06,14,50,12.60
2008,10,06,14,51,9.20
2008,10,06,14,52,9.10
2008,10,06,14,53,10.90
2008,10,06,14,54,7.40
2008,10,06,14,55,9.20
2008,10,06,14,56,5.20
2008,10,06,14,57,8.70
2008,10,06,14,58,6.40
2008,10,06,14,59,9.00
2008,10,06,15,00,7.00
2008,10,06,15,01,11.70
2008,10,06,15,02,9.70
2008,10,06,15,03,9.70
2008,10,06,15,04,6.50
2008,10,06,15,05,6.90
2008,10,06,15,06,3.40
2008,10,06,15,07,1.20
2008,10,06,15,08,1.80
2008,10,06,15,09,4.20
2008,10,06,15,10,1.80
2008,10,06,15,11,1.00
2008,10,06,15,12,5.30
2008,10,06,15,13,4.90
2008,10,06,15,14,1.20
2008,10,06,15,15,3.40
2008,10,06,15,16,4.80
2008,10,06,15,17,2.10
2008,10,06,15,18,2.70
2008,10,06,15,19,2.90
2008,10,06,15,20,4.10
2008,10,06,15,21,5.10
2008,10,06,15,22,2.00
2008,10,06,15,23,2.70
2008,10,06,15,24,4.90
2008,10,06,15,25,0.80
2008,10,06,15,26,1.30
2008,10,06,15,27,4.10
2008,10,06,15,28,5.00
2008,10,06,15,29,5.80
2008,10,06,15,30,5.00
2008,10,06,15,31,5.00
2008,10,06,15,32,3.60
2008,10,06,15,33,4.00
2008,10,06,15,34,2.70
2008,10,06,15,35,3.10
2008,10,06,15,36,5.50
2008,10,06,15,37,6.20
2008,10,06,15,38,5.50
2008,10,06,15,39,6.90
2008,10,06,15,40,6.80
2008,10,06,15,41,5.70
2008,10,06,15,42,6.00
2008,10,06,15,43,6.10
2008,10,06,15,44,7.00
2008,10,06,15,45,7.80
2008,10,06,15,46,6.90
2008,10,06,15,47,5.10
2008,10,06,15,48,5.60
2008,10,06,15,49,4.50
2008,10,06,15,50,4.60
2008,10,06,15,51,6.00
2008,10,06,15,52,5.00
2008,10,06,15,53,6.20
2008,10,06,15,54,8.50
2008,10,06,15,55,8.60
2008,10,06,15,56,9.40
2008,10,06,15,57,8.30
2008,10,06,15,58,7.50
2008,10,06,15,59,6.40
2008,10,06,16,00,7.00
2008,10,06,16,01,6.20
2008,10,06,16,02,6.80
2008,10,06,16,03,7.60
2008,10,06,16,04,6.80
2008,10,06,16,05,6.10
2008,10,06,16,06,4.80
2008,10,06,16,07,1.80
2008,10,06,16,08,2.40
2008,10,06,16,09,3.80
2008,10,06,16,10,5.60
2008,10,06,16,11,5.60
2008,10,06,16,12,5.80
2008,10,06,16,13,7.00
2008,10,06,16,14,4.80
2008,10,06,16,15,7.60
2008,10,06,16,16,6.00
2008,10,06,16,17,8.00
2008,10,06,16,18,7.70
2008,10,06,16,19,6.20
2008,10,06,16,20,6.10
2008,10,06,16,21,5.70
2008,10,06,16,22,6.80
2008,10,06,16,23,6.20
2008,10,06,16,24,4.30
2008,10,06,16,25,4.60
2008,10,06,16,26,4.10
2008,10,06,16,27,4.10
2008,10,06,16,28,3.90
2008,10,06,16,29,2.80
2008,10,06,16,30,3.70
2008,10,06,16,31,1.30
2008,10,06,16,32,3.20
2008,10,06,16,33,3.60
2008,10,06,16,34,5.30
2008,10,06,16,35,4.60
2008,10,06,16,36,3.90
2008,10,06,16,37,5.60
2008,10,06,16,38,4.80
2008,10,06,16,39,3.20
2008,10,06,16,40,4.50
2008,10,06,16,41,2.90
2008,10,06,16,42,4.80
2008,10,06,16,43,5.10
2008,10,06,16,44,6.00
2008,10,06,16,45,6.20
2008,10,06,16,46,3.70
2008,10,06,16,47,4.10
2008,10,06,16,48,2.90
2008,10,06,16,49,5.40
2008,10,06,16,50,5.40
2008,10,06,16,51,5.60
2008,10,06,16,52,6.10
2008,10,06,16,53,5.80
2008,10,06,16,54,5.60
2008,10,06,16,55,5.30
2008,10,06,16,56,5.00
2008,10,06,16,57,7.30
2008,10,06,16,58,6.20
2008,10,06,16,59,7.10
2008,10,06,17,00,5.40
2008,10,06,17,01,6.00
2008,10,06,17,02,5.20
2008,10,06,17,03,4.00
2008,10,06,17,04,2.50
2008,10,06,17,05,4.20
2008,10,06,17,06,5.00
2008,10,06,17,07,5.70
2008,10,06,17,08,5.70
2008,10,06,17,09,5.60
2008,10,06,17,10,6.10
2008,10,06,17,11,5.90
2008,10,06,17,12,6.00
2008,10,06,17,13,5.00
2008,10,06,17,14,5.50
2008,10,06,17,15,7.20
2008,10,06,17,16,5.80
2008,10,06,17,17,7.70
2008,10,06,17,18,8.60
2008,10,06,17,19,9.00
2008,10,06,17,20,7.00
2008,10,06,17,21,8.50
2008,10,06,17,22,8.00
2008,10,06,17,23,5.70
2008,10,06,17,24,5.30
2008,10,06,17,25,4.00
2008,10,06,17,26,6.70
2008,10,06,17,27,5.50
2008,10,06,17,28,4.40
2008,10,06,17,29,5.80
2008,10,06,17,30,4.70
2008,10,06,17,31,6.20
2008,10,06,17,32,6.50
2008,10,06,17,33,8.60
2008,10,06,17,34,6.80
2008,10,06,17,35,7.60
2008,10,06,17,36,6.20
2008,10,06,17,37,4.80
2008,10,06,17,38,5.20
2008,10,06,17,39,4.90
2008,10,06,17,40,5.40
2008,10,06,17,41,4.20
2008,10,06,17,42,2.70
2008,10,06,17,43,3.60
2008,10,06,17,44,7.50
2008,10,06,17,45,6.10
2008,10,06,17,46,6.80
2008,10,06,17,47,6.40
2008,10,06,17,48,5.50
2008,10,06,17,49,6.40
2008,10,06,17,50,5.30
2008,10,06,17,51,4.20
2008,10,06,17,52,4.50
2008,10,06,17,53,4.80
2008,10,06,17,54,5.00
2008,10,06,17,55,4.90
2008,10,06,17,56,4.60
2008,10,06,17,57,4.90
2008,10,06,17,58,5.30
2008,10,06,17,59,5.90
2008,10,06,18,00,6.70
2008,10,06,18,01,6.40
2008,10,06,18,02,5.50
2008,10,06,18,03,6.00
2008,10,06,18,04,5.80